{"data":{"norad_id":47699,"epoch":"2026-09-20T22:09:01.284192Z","epoch_age_seconds":45721,"freshness":"FRESH","line1":"1 47699U 21015A   26263.92293153  .00000085  00000+0  40045-4 0  9996","line2":"2 47699  98.4276 335.1979 0001847 270.7058  89.3919 14.40844646292439","mean_motion":14.40844646,"eccentricity":0.0001847,"inclination_deg":98.4276,"raan_deg":335.1979,"arg_perigee_deg":270.7058,"mean_anomaly_deg":89.3919,"bstar":4.0045e-5,"rev_number":29243,"period_min":99.94137841284,"perigee_km":754.3914891026,"apogee_km":757.02673185581,"semimajor_km":7133.8461104792,"source":"CELESTRAK","updated_at":"2026-09-21T09:00:07.562532Z"}}